EUS25SM EGPF-EIDW

Flight info

Callsign EUS25SM
Flight time 0h 37m
Altitude 24000
Route NORBO L186 TRN DCT BLACA DCT NELBO P620 NIMAT NIMAT4L
Aircraft A320/M-SDE3FGHIRWY/LB1

Departure

Time 2026-05-04 19:27
Airport Glasgow Airport (EGPF)

Arrival

Time 2026-05-04 20:05
Airport Dublin Airport (EIDW)
Time Latitude Longitude Altitude Speed Heading
2026-05-04 19:09 55.86517 -4.43670 29 ft 0 kts 253°
2026-05-04 19:20 55.86519 -4.43657 29 ft 4 kts 254°
2026-05-04 19:20 55.86526 -4.43611 29 ft 4 kts 259°
2026-05-04 19:20 55.86529 -4.43563 29 ft 4 kts 274°
2026-05-04 19:21 55.86523 -4.43522 29 ft 4 kts 321°
2026-05-04 19:21 55.86516 -4.43514 29 ft 0 kts 343°
2026-05-04 19:22 55.86517 -4.43514 29 ft 1 kts 343°
2026-05-04 19:23 55.86540 -4.43526 29 ft 8 kts 343°
2026-05-04 19:23 55.86604 -4.43560 29 ft 12 kts 343°
2026-05-04 19:23 55.86695 -4.43604 29 ft 15 kts 345°
2026-05-04 19:23 55.86768 -4.43527 29 ft 16 kts 75°
2026-05-04 19:24 55.86800 -4.43326 29 ft 18 kts 73°
2026-05-04 19:24 55.86836 -4.43106 29 ft 16 kts 73°
2026-05-04 19:24 55.86887 -4.42950 29 ft 15 kts 29°
2026-05-04 19:24 55.86990 -4.42860 29 ft 18 kts 22°
2026-05-04 19:25 55.87118 -4.42774 29 ft 21 kts 20°
2026-05-04 19:25 55.87267 -4.42671 29 ft 25 kts 20°
2026-05-04 19:25 55.87415 -4.42543 29 ft 24 kts 43°
2026-05-04 19:25 55.87523 -4.42341 29 ft 23 kts 44°
2026-05-04 19:26 55.87626 -4.42168 29 ft 20 kts 26°
2026-05-04 19:26 55.87747 -4.42216 29 ft 18 kts 318°
2026-05-04 19:26 55.87713 -4.42361 29 ft 17 kts 227°
2026-05-04 19:26 55.87514 -4.42733 29 ft 76 kts 226°
2026-05-04 19:27 55.86995 -4.43701 30 ft 137 kts 226°
2026-05-04 19:27 55.86238 -4.45064 289 ft 163 kts 228°
2026-05-04 19:27 55.85395 -4.46491 936 ft 171 kts 227°
2026-05-04 19:27 55.84512 -4.47964 1676 ft 176 kts 227°
2026-05-04 19:28 55.83614 -4.49456 2333 ft 181 kts 227°
2026-05-04 19:28 55.82642 -4.51092 2691 ft 203 kts 229°
2026-05-04 19:28 55.81609 -4.53006 3156 ft 226 kts 231°
2026-05-04 19:28 55.80494 -4.55154 3734 ft 247 kts 230°
2026-05-04 19:29 55.79277 -4.57444 4486 ft 262 kts 229°
2026-05-04 19:29 55.78003 -4.59774 5335 ft 263 kts 229°
2026-05-04 19:29 55.76708 -4.62073 6386 ft 265 kts 228°
2026-05-04 19:29 55.75391 -4.64389 7305 ft 268 kts 227°
2026-05-04 19:30 55.74054 -4.66729 8228 ft 272 kts 227°
2026-05-04 19:30 55.72699 -4.69099 9139 ft 276 kts 227°
2026-05-04 19:30 55.71335 -4.71455 10044 ft 279 kts 227°
2026-05-04 19:30 55.69844 -4.73907 10502 ft 301 kts 220°
2026-05-04 19:31 55.67879 -4.75535 10927 ft 325 kts 194°
2026-05-04 19:31 55.65617 -4.75842 11642 ft 334 kts 185°
2026-05-04 19:31 55.63279 -4.75984 12434 ft 339 kts 185°
2026-05-04 19:31 55.60910 -4.76130 13228 ft 343 kts 185°
2026-05-04 19:32 55.58512 -4.76282 13989 ft 347 kts 185°
2026-05-04 19:32 55.56081 -4.76453 14680 ft 351 kts 185°
2026-05-04 19:32 55.53635 -4.76641 15384 ft 354 kts 186°
2026-05-04 19:32 55.51161 -4.76839 16079 ft 358 kts 186°
2026-05-04 19:33 55.48663 -4.77039 16770 ft 361 kts 186°
2026-05-04 19:33 55.46140 -4.77238 17455 ft 365 kts 186°
2026-05-04 19:33 55.43592 -4.77441 18133 ft 368 kts 186°
2026-05-04 19:33 55.41018 -4.77642 18722 ft 372 kts 186°
2026-05-04 19:34 55.38418 -4.77838 19309 ft 375 kts 186°
2026-05-04 19:34 55.35799 -4.78036 19914 ft 378 kts 186°
2026-05-04 19:34 55.33175 -4.78337 20524 ft 379 kts 191°
2026-05-04 19:34 55.30607 -4.79358 21132 ft 377 kts 202°
2026-05-04 19:35 55.28196 -4.81153 21750 ft 376 kts 210°
2026-05-04 19:35 55.25858 -4.83236 22372 ft 379 kts 210°
2026-05-04 19:35 55.23500 -4.85322 22989 ft 381 kts 210°
2026-05-04 19:35 55.21120 -4.87406 23597 ft 384 kts 210°
2026-05-04 19:36 55.18716 -4.89504 24106 ft 386 kts 210°
2026-05-04 19:36 55.16303 -4.91609 24568 ft 389 kts 210°
2026-05-04 19:36 55.13871 -4.93734 24956 ft 394 kts 209°
2026-05-04 19:36 55.11419 -4.95874 25056 ft 392 kts 209°
2026-05-04 19:37 55.09021 -4.97956 25082 ft 377 kts 209°
2026-05-04 19:37 55.06697 -4.99970 25081 ft 371 kts 209°
2026-05-04 19:37 55.04387 -5.01975 25081 ft 370 kts 209°
2026-05-04 19:37 55.02089 -5.03974 25081 ft 369 kts 210°
2026-05-04 19:38 54.99791 -5.05971 25081 ft 369 kts 209°
2026-05-04 19:38 54.97485 -5.07973 25084 ft 375 kts 209°
2026-05-04 19:38 54.95097 -5.10051 25088 ft 393 kts 209°
2026-05-04 19:38 54.92599 -5.12227 25087 ft 409 kts 209°
2026-05-04 19:39 54.90009 -5.14470 25088 ft 423 kts 208°
2026-05-04 19:39 54.87213 -5.16313 25086 ft 436 kts 196°
2026-05-04 19:39 54.84228 -5.17436 25086 ft 441 kts 194°
2026-05-04 19:39 54.81217 -5.18527 25086 ft 442 kts 194°
2026-05-04 19:40 54.78207 -5.19619 25084 ft 442 kts 194°
2026-05-04 19:40 54.75194 -5.20713 25092 ft 442 kts 194°
2026-05-04 19:40 54.72183 -5.21813 25092 ft 442 kts 194°
2026-05-04 19:40 54.69170 -5.22918 25092 ft 442 kts 194°
2026-05-04 19:41 54.66160 -5.24023 25094 ft 442 kts 194°
2026-05-04 19:41 54.63147 -5.25129 25085 ft 442 kts 193°
2026-05-04 19:41 54.60141 -5.26231 25079 ft 443 kts 193°
2026-05-04 19:41 54.57126 -5.27336 25075 ft 443 kts 193°
2026-05-04 19:42 54.54106 -5.28439 25030 ft 445 kts 193°
2026-05-04 19:42 54.51067 -5.29546 24497 ft 446 kts 193°
2026-05-04 19:42 54.48118 -5.31105 24079 ft 443 kts 206°
2026-05-04 19:42 54.45362 -5.33420 23638 ft 439 kts 207°
2026-05-04 19:43 54.42611 -5.35746 22473 ft 443 kts 207°
2026-05-04 19:43 54.39846 -5.38069 22041 ft 437 kts 207°
2026-05-04 19:43 54.37151 -5.40325 21563 ft 427 kts 207°
2026-05-04 19:43 54.34482 -5.42563 21110 ft 429 kts 207°
2026-05-04 19:44 54.31797 -5.44821 20575 ft 430 kts 207°
2026-05-04 19:44 54.29103 -5.47084 20037 ft 431 kts 207°
2026-05-04 19:44 54.26405 -5.49344 19502 ft 433 kts 207°
2026-05-04 19:44 54.23699 -5.51611 18968 ft 434 kts 207°
2026-05-04 19:45 54.20980 -5.53890 18428 ft 435 kts 207°
2026-05-04 19:45 54.18260 -5.56165 17855 ft 436 kts 207°
2026-05-04 19:45 54.15532 -5.58445 17329 ft 437 kts 207°
2026-05-04 19:45 54.12803 -5.60717 17074 ft 437 kts 207°
2026-05-04 19:46 54.10077 -5.62978 16726 ft 433 kts 206°
2026-05-04 19:46 54.07363 -5.65227 15624 ft 435 kts 207°
2026-05-04 19:46 54.04644 -5.67477 14728 ft 433 kts 207°
2026-05-04 19:46 54.02000 -5.69660 14227 ft 408 kts 207°
2026-05-04 19:47 53.99494 -5.71728 13223 ft 395 kts 207°
2026-05-04 19:47 53.96981 -5.73593 12599 ft 393 kts 198°
2026-05-04 19:47 53.94291 -5.74331 12574 ft 394 kts 184°
2026-05-04 19:47 53.91548 -5.74564 12576 ft 395 kts 184°
2026-05-04 19:48 53.88808 -5.74778 12441 ft 395 kts 184°
2026-05-04 19:48 53.86105 -5.74968 12186 ft 380 kts 183°
2026-05-04 19:48 53.83528 -5.75139 12049 ft 362 kts 183°
2026-05-04 19:48 53.81065 -5.75305 11920 ft 346 kts 184°
2026-05-04 19:49 53.78705 -5.75466 11716 ft 334 kts 184°
2026-05-04 19:49 53.76399 -5.75627 11374 ft 328 kts 184°
2026-05-04 19:49 53.74166 -5.75786 11023 ft 323 kts 184°
2026-05-04 19:49 53.71936 -5.75947 10687 ft 318 kts 184°
2026-05-04 19:50 53.69741 -5.76106 10337 ft 315 kts 184°
2026-05-04 19:50 53.67510 -5.76267 9955 ft 324 kts 184°
2026-05-04 19:50 53.65250 -5.76400 9701 ft 326 kts 180°
2026-05-04 19:50 53.63058 -5.75569 9458 ft 327 kts 154°
2026-05-04 19:51 53.61315 -5.73152 9225 ft 327 kts 129°
2026-05-04 19:51 53.59956 -5.70145 8983 ft 317 kts 127°
2026-05-04 19:51 53.58666 -5.67207 8715 ft 308 kts 126°
2026-05-04 19:51 53.57385 -5.64424 8473 ft 290 kts 134°
2026-05-04 19:52 53.55865 -5.62398 8243 ft 271 kts 149°
2026-05-04 19:52 53.54273 -5.60751 8018 ft 267 kts 149°
2026-05-04 19:52 53.52694 -5.59130 7794 ft 266 kts 150°
2026-05-04 19:52 53.51122 -5.57523 7582 ft 264 kts 150°
2026-05-04 19:53 53.49543 -5.55972 7380 ft 262 kts 156°
2026-05-04 19:53 53.47821 -5.55050 7199 ft 259 kts 173°
2026-05-04 19:53 53.46046 -5.54570 7025 ft 255 kts 173°
2026-05-04 19:53 53.44325 -5.54097 6847 ft 246 kts 173°
2026-05-04 19:54 53.42630 -5.53628 6680 ft 247 kts 173°
2026-05-04 19:54 53.40939 -5.53162 6510 ft 246 kts 173°
2026-05-04 19:54 53.39249 -5.53016 6329 ft 243 kts 184°
2026-05-04 19:54 53.37574 -5.52636 6139 ft 246 kts 162°
2026-05-04 19:55 53.36024 -5.51418 5958 ft 247 kts 153°
2026-05-04 19:55 53.34519 -5.50065 5659 ft 245 kts 159°
2026-05-04 19:55 53.32886 -5.49514 5292 ft 238 kts 185°
2026-05-04 19:55 53.31317 -5.50193 5022 ft 231 kts 212°
2026-05-04 19:56 53.30077 -5.51866 4849 ft 230 kts 230°
2026-05-04 19:56 53.28968 -5.53857 4698 ft 241 kts 230°
2026-05-04 19:56 53.27810 -5.55930 4585 ft 246 kts 230°
2026-05-04 19:56 53.26635 -5.58025 4482 ft 247 kts 230°
2026-05-04 19:57 53.25456 -5.60126 4375 ft 248 kts 230°
2026-05-04 19:57 53.24436 -5.62409 4268 ft 245 kts 248°
2026-05-04 19:57 53.24033 -5.65211 4165 ft 252 kts 273°
2026-05-04 19:57 53.24423 -5.68030 4062 ft 250 kts 299°
2026-05-04 19:58 53.25407 -5.70420 3954 ft 250 kts 308°
2026-05-04 19:58 53.26436 -5.72716 3946 ft 250 kts 308°
2026-05-04 19:58 53.27481 -5.75045 3942 ft 251 kts 308°
2026-05-04 19:58 53.28526 -5.77378 3942 ft 251 kts 308°
2026-05-04 19:59 53.29569 -5.79721 3944 ft 251 kts 308°
2026-05-04 19:59 53.30609 -5.82064 3940 ft 251 kts 308°
2026-05-04 19:59 53.31647 -5.84411 3941 ft 251 kts 307°
2026-05-04 19:59 53.32683 -5.86758 3942 ft 251 kts 307°
2026-05-04 20:00 53.33720 -5.89110 3936 ft 251 kts 307°
2026-05-04 20:00 53.34749 -5.91440 3937 ft 251 kts 308°
2026-05-04 20:00 53.35765 -5.93738 3931 ft 237 kts 307°
2026-05-04 20:00 53.36710 -5.95882 3926 ft 222 kts 307°
2026-05-04 20:01 53.37623 -5.97954 3848 ft 222 kts 308°
2026-05-04 20:01 53.38543 -6.00054 3535 ft 219 kts 308°
2026-05-04 20:01 53.39459 -6.02138 3080 ft 223 kts 308°
2026-05-04 20:01 53.40352 -6.04167 3004 ft 209 kts 308°
2026-05-04 20:02 53.40952 -6.06282 2566 ft 214 kts 283°
2026-05-04 20:02 53.41108 -6.08686 2212 ft 204 kts 278°
2026-05-04 20:02 53.41236 -6.10975 1928 ft 192 kts 278°
2026-05-04 20:02 53.41357 -6.13129 1688 ft 179 kts 278°
2026-05-04 20:03 53.41470 -6.15136 1419 ft 167 kts 278°
2026-05-04 20:03 53.41575 -6.17006 1208 ft 153 kts 278°
2026-05-04 20:03 53.41669 -6.18696 980 ft 144 kts 278°
2026-05-04 20:03 53.41755 -6.20356 789 ft 142 kts 276°
2026-05-04 20:04 53.41849 -6.21993 596 ft 140 kts 274°
2026-05-04 20:04 53.41939 -6.23626 400 ft 140 kts 275°
2026-05-04 20:04 53.42032 -6.25243 235 ft 139 kts 275°
2026-05-04 20:04 53.42116 -6.26717 211 ft 105 kts 275°
2026-05-04 20:05 53.42163 -6.27574 214 ft 44 kts 275°
2026-05-04 20:05 53.42224 -6.27925 211 ft 24 kts 300°
2026-05-04 20:05 53.42301 -6.28121 211 ft 17 kts 322°
2026-05-04 20:05 53.42362 -6.28033 211 ft 16 kts 95°
2026-05-04 20:06 53.42351 -6.27832 213 ft 19 kts 95°
2026-05-04 20:06 53.42338 -6.27602 211 ft 21 kts 95°
2026-05-04 20:06 53.42324 -6.27344 211 ft 23 kts 95°
2026-05-04 20:06 53.42308 -6.27062 211 ft 25 kts 95°
2026-05-04 20:07 53.42292 -6.26763 217 ft 24 kts 95°
2026-05-04 20:07 53.42276 -6.26470 211 ft 26 kts 95°
2026-05-04 20:07 53.42259 -6.26159 211 ft 28 kts 95°
2026-05-04 20:07 53.42240 -6.25827 211 ft 29 kts 95°
2026-05-04 20:08 53.42223 -6.25513 211 ft 26 kts 95°
2026-05-04 20:08 53.42211 -6.25309 211 ft 25 kts 95°
2026-05-04 20:08 53.42196 -6.25018 212 ft 25 kts 95°
2026-05-04 20:08 53.42187 -6.24796 211 ft 13 kts 82°
2026-05-04 20:09 53.42223 -6.24763 211 ft 5 kts 338°
2026-05-04 20:09 53.42265 -6.24791 215 ft 9 kts 338°
2026-05-04 20:09 53.42324 -6.24830 211 ft 8 kts 339°
2026-05-04 20:09 53.42391 -6.24882 214 ft 11 kts 333°
2026-05-04 20:10 53.42467 -6.24936 218 ft 13 kts 336°
2026-05-04 20:10 53.42548 -6.24949 213 ft 12 kts 36°
2026-05-04 20:10 53.42575 -6.24878 211 ft 2 kts 41°
2026-05-04 20:10 53.42583 -6.24872 211 ft 1 kts 26°
2026-05-04 20:11 53.42601 -6.24815 211 ft 8 kts 73°
2026-05-04 20:11 53.42612 -6.24744 215 ft 1 kts 75°
2026-05-04 20:11 53.42613 -6.24740 214 ft 0 kts 75°